ATLAS 5 CENTAUR DEB, 52972

Orbit data source: Space-Track

ATLAS 5 CENTAUR DEB, 52972 is space debris in HEO originally from a launch on Wed, 17 Oct 2018 UTC launched from the Air Force Eastern Test Range (AFETR). Debris objects in space refer to the collection of defunct objects orbiting the Earth. Examples of debris include non-operational satellites, rocket bodies, and fragments generated from explosions, collisions, or faulty payload assembly.

Loading next visibility...
Identifier
52972, 2018-079GW
Orbit
HEO
Country
Flag of USUS
Related business
Flag of USUnited Launch Alliance/Lockheed Martin (US)
Manufacturer
ULA Decatur
Mission
Spacecraft
Bus & Motor
Unknown
Mass
Unknown
Launch date (UTC)
2018-10-17 (8 years ago)
Launch vehicle
Unknown
Launch site
Air Force Eastern Test Range (AFETR)
Object type
Payload
Rocket body
Debris
Shape & HBR
Unknown shape, 1.1 m
Radar Cross Section
RCS unknown

Expand to show TLE details & history
Last TLE update: 3 days ago

TLE from 3 days ago
0 ATLAS 5 CENTAUR DEB
1 52972U 18079GW  26234.32511228 -.00000126  00000-0  00000-0 0  9991
2 52972  13.2914  11.0082 4480919  11.0142 356.1351  1.93875926 35689
Epoch: 2026-08-22T07:48Z
TLE epoch observation values (Epoch: 2026-08-22T07:48:09.700Z)
Latitude
-0.00001°
Longitude
-76.65113°
Altitude
8,710.721 km
Speed
6.178 km/s
True Right ascension
00h 44m 06s
True Declination
0° 00' 00"
Sunlit
Object was in daylight at epoch
Visualization orbit readout
Latitude
Unknown
Longitude
Unknown
Altitude
Unknown
Speed
Unknown
Apparent Right ascension
Unknown
Apparent Declination
Unknown
Sunlit
N/A
Visualization observer readout
Local Sidereal Time
13:30:43
Azimuth
Unknown
Elevation
Unknown
Doppler factor
Unknown
Orbital elements
Apogee altitude
32,966.213 km
Perigee altitude
8,617.089 km
Semi-major axis
27,169.788 km
Eccentricity
0.44809
Inclination
13.2914°
RAAN
11.0082°
Arg. of periapsis
11.0142°
True anomaly
348.70225°
Mean anomaly
356.1351°
Eccentric anomaly
353.01126°
Mean motion
0.48463 °/min
Orbital period
742.83 mins
BSTAR
0
Loading maneuver chart data...
Computing Atmospheric mass density...

Documentation

Showing up to 5 results
|